Volver al catálogo

STARLINK-2406

ActivoComunicacionesVLEO
NORAD 47821·PAYLOAD·🇺🇸 United States

Lanzado Mar 11, 2021 desde Cape Canaveral Space Force Station

Loading…

Próximos Pases (próximas 24 horas)

TLE

ActualizadoSource: CelesTrak SupGP

Época: Sep 15, 2026, 01:38 UTC

1 47821C 21018AL  26258.06854167 -.00001679  00000+0 -54005-4 0  2584
2 47821  53.1581  81.5912 0001047  81.0801 255.3895 15.31703773    18

Sigue STARLINK-2406 en tiempo real con AllMySat

Download on the App Store